星链-3046 (STARLINK-3046 )

导读 | 豆包AI

STARLINK-3046是美国SpaceX公司星链星座中的V1.5版本通信卫星,于2021年9月14日发射,运行在近地轨道,属于星链第一代网络的组网卫星。它配备相控阵天线与氪离子推进系统,为全球偏远地区提供高速低延迟宽带互联网,支持远程通信与网络接入服务,目前已服役超4年,是星链大规模星座组网的重要组成部分。

基本信息
目录编号:
49169
目录名称:
STARLINK-3046
国际标识:
2021-082AR
轨道中心:
EARTH
卫星名称:
星链-3046
卫星全名:
星链-3046 (STARLINK-3046 )
卫星状态:
在轨 (已飞行1689 天)
发射日期:
2021-09-14 UTC
国别 :
美国 (US)
星等 :
--
轨道信息
数据来源 国际轨道数据 AOE轨道数据
星历时间 2026-04-30T13:45:28+0800
11小时前
查看轨道信息
2026-04-26T09:00:00+0800
4天前
查看轨道信息
半长轴 6950.194km 6950.128km
偏心率 0.0003725 0.0003503
轨道倾角 69.998° 70.000°
近地点辐角 270.021° 268.614°
升交点赤经 144.489° 155.075°
平近点角 90.052° 132.698°
近地点 569.468km 569.556km
远地点 574.646km 574.426km
周期 96.107分钟 96.106分钟
每日圈数 14.983298 14.983513
详细信息
固有亮度:
5
最大亮度:
2.5
卫星平台:
Starlink v1.5
覆盖范围:
全球
运营商:
太空探索技术公司
运营商所在国:
美国
制造商(研发单位):
太空探索技术公司
制造商所在国:
美国
使用方式:
暂无
卫星简介
星链(Starlink)计划是由太空探索技术公司(SpaceX)提出的一个巨型低轨卫星互联网星座项目,计划在2019年至2024年间在太空搭建由约1.2万颗卫星组成的“星链”网络,其中1584颗将部署在地球上空550千米处的近地轨道,并从2020年开始工作。该卫星仍在工作。
2D轨道图
3D轨道图
轨道高度分析图
轨道倾角分析图
轨道综合分析图
查看轨道综合分析图